GFSNGP_prec_precacc12_159.txt.gz
Total_Precipitation_Accumulation
0.00 0.00 0.00 0.00 0.00 0.00 0.00 0.00 0.02 0.01 0.00 0.00 0.00 0.00 0.00 0.00 0.00 0.00 0.00 0.00 0.00 0.00 0.00 0.00 0.00 0.00 0.00 0.00 0.00 0.00 0.00 0.01 0.01 0.00 0.00 0.00 0.00 0.00 0.00 0.00 0.00 0.00 0.01 0.01
0.00 0.00 0.00 0.00 0.00 0.00 0.00 0.00 0.00 0.00 0.00 0.00 0.00 0.00 0.00 0.00 0.00 0.00 0.00 0.00 0.00 0.00 0.00 0.00 0.00 0.00 0.00 0.00 0.00 0.01 0.01 0.01 0.01 0.01 0.01 0.01 0.01 0.02 0.04 0.03 0.01 0.02 0.03 0.03
0.01 0.00 0.03 0.04 0.00 0.00 0.00 0.00 0.00 0.01 0.00 0.00 0.00 0.00 0.00 0.00 0.00 0.01 0.02 0.01 0.00 0.00 0.00 0.01 0.01 0.01 0.03 0.03 0.04 0.05 0.04 0.03 0.04 0.05 0.05 0.07 0.11 0.16 0.15 0.10 0.08 0.10 0.10 0.08
0.01 0.01 0.04 0.00 0.00 0.00 0.00 0.00 0.00 0.00 0.00 0.00 0.00 0.00 0.00 0.00 0.00 0.00 0.03 0.06 0.07 0.06 0.05 0.06 0.08 0.12 0.13 0.15 0.17 0.21 0.24 0.27 0.35 0.36 0.35 0.34 0.37 0.37 0.30 0.23 0.21 0.20 0.14 0.14
0.01 0.01 0.00 0.00 0.00 0.00 0.00 0.00 0.00 0.00 0.00 0.00 0.00 0.00 0.00 0.00 0.01 0.01 0.01 0.01 0.07 0.15 0.22 0.28 0.33 0.46 0.61 0.64 0.71 0.66 0.65 0.68 0.70 0.69 0.69 0.66 0.64 0.57 0.47 0.38 0.38 0.29 0.19 0.18
0.01 0.02 0.00 0.00 0.00 0.00 0.00 0.01 0.00 0.00 0.00 0.00 0.00 0.01 0.06 0.04 0.06 0.02 0.00 0.00 0.01 0.07 0.17 0.27 0.39 0.46 0.62 0.80 0.91 0.89 0.93 0.97 0.95 0.84 0.76 0.71 0.62 0.52 0.44 0.38 0.33 0.20 0.20 0.14
0.05 0.07 0.01 0.00 0.00 0.01 0.04 0.02 0.00 0.00 0.01 0.01 0.05 0.06 0.10 0.07 0.05 0.01 0.00 0.00 0.00 0.00 0.01 0.06 0.19 0.33 0.44 0.58 0.69 0.82 1.14 1.02 0.87 0.73 0.62 0.53 0.43 0.33 0.31 0.27 0.19 0.16 0.17 0.08
0.13 0.20 0.12 0.01 0.01 0.04 0.04 0.02 0.02 0.01 0.02 0.03 0.02 0.06 0.24 0.20 0.05 0.01 0.00 0.00 0.00 0.00 0.00 0.00 0.01 0.07 0.16 0.35 0.59 0.87 1.06 0.89 0.58 0.48 0.40 0.35 0.29 0.27 0.23 0.18 0.16 0.16 0.12 0.07
0.01 0.02 0.01 0.01 0.02 0.01 0.01 0.01 0.00 0.01 0.01 0.06 0.17 0.09 0.06 0.02 0.01 0.00 0.00 0.00 0.00 0.00 0.00 0.00 0.00 0.01 0.04 0.12 0.26 0.56 0.70 0.58 0.45 0.38 0.31 0.24 0.23 0.23 0.21 0.17 0.14 0.12 0.08 0.05
0.05 0.00 0.00 0.00 0.00 0.00 0.00 0.00 0.00 0.00 0.00 0.02 0.10 0.11 0.03 0.01 0.00 0.00 0.00 0.00 0.00 0.00 0.00 0.00 0.00 0.00 0.01 0.05 0.19 0.32 0.38 0.42 0.39 0.32 0.31 0.28 0.20 0.17 0.15 0.12 0.09 0.06 0.03 0.02
0.02 0.00 0.00 0.00 0.00 0.00 0.00 0.00 0.00 0.00 0.00 0.02 0.03 0.03 0.02 0.01 0.00 0.00 0.00 0.00 0.00 0.00 0.00 0.00 0.00 0.00 0.03 0.09 0.19 0.28 0.36 0.36 0.34 0.31 0.24 0.20 0.17 0.12 0.08 0.06 0.03 0.01 0.01 0.00
0.01 0.00 0.03 0.01 0.00 0.01 0.02 0.01 0.00 0.00 0.01 0.02 0.03 0.08 0.07 0.03 0.01 0.00 0.00 0.00 0.00 0.00 0.00 0.00 0.00 0.01 0.03 0.05 0.08 0.13 0.18 0.23 0.24 0.21 0.16 0.12 0.11 0.11 0.07 0.03 0.00 0.00 0.00 0.00
0.00 0.00 0.01 0.00 0.00 0.00 0.00 0.00 0.00 0.02 0.04 0.07 0.19 0.21 0.14 0.14 0.03 0.00 0.00 0.00 0.00 0.00 0.00 0.00 0.01 0.02 0.06 0.09 0.10 0.08 0.06 0.07 0.12 0.10 0.07 0.05 0.06 0.06 0.06 0.03 0.01 0.00 0.00 0.00
0.03 0.02 0.01 0.00 0.00 0.01 0.01 0.01 0.02 0.02 0.03 0.04 0.10 0.12 0.10 0.02 0.00 0.00 0.00 0.00 0.00 0.00 0.01 0.01 0.02 0.04 0.08 0.12 0.17 0.18 0.18 0.11 0.12 0.10 0.08 0.06 0.06 0.06 0.05 0.02 0.01 0.02 0.03 0.01
0.03 0.04 0.01 0.01 0.02 0.02 0.03 0.11 0.20 0.18 0.17 0.20 0.17 0.09 0.01 0.00 0.00 0.00 0.00 0.00 0.00 0.01 0.02 0.04 0.06 0.12 0.13 0.16 0.17 0.19 0.18 0.18 0.16 0.14 0.10 0.06 0.05 0.05 0.04 0.02 0.01 0.01 0.03 0.04
0.01 0.03 0.04 0.03 0.01 0.01 0.00 0.02 0.24 0.33 0.30 0.21 0.13 0.01 0.03 0.03 0.02 0.01 0.01 0.04 0.06 0.08 0.11 0.12 0.13 0.17 0.23 0.25 0.24 0.24 0.21 0.17 0.14 0.12 0.10 0.08 0.06 0.04 0.03 0.01 0.00 0.01 0.01 0.02
0.03 0.07 0.11 0.20 0.15 0.05 0.01 0.03 0.12 0.03 0.08 0.05 0.01 0.02 0.01 0.00 0.00 0.00 0.00 0.01 0.01 0.02 0.03 0.04 0.06 0.07 0.09 0.10 0.09 0.10 0.11 0.14 0.11 0.08 0.08 0.06 0.04 0.02 0.01 0.00 0.00 0.00 0.01 0.01
0.00 0.00 0.03 0.23 0.03 0.00 0.00 0.01 0.02 0.00 0.00 0.00 0.00 0.00 0.00 0.00 0.00 0.00 0.01 0.01 0.01 0.02 0.02 0.02 0.02 0.04 0.05 0.07 0.06 0.06 0.07 0.07 0.07 0.06 0.05 0.03 0.02 0.01 0.00 0.00 0.00 0.00 0.01 0.01
0.00 0.00 0.00 0.04 0.01 0.01 0.02 0.01 0.01 0.00 0.00 0.00 0.00 0.00 0.00 0.00 0.00 0.00 0.01 0.01 0.01 0.01 0.02 0.01 0.01 0.02 0.04 0.05 0.03 0.02 0.03 0.04 0.04 0.04 0.03 0.03 0.02 0.01 0.01 0.01 0.00 0.01 0.03 0.01
0.00 0.00 0.00 0.00 0.00 0.01 0.00 0.00 0.00 0.00 0.00 0.00 0.00 0.00 0.00 0.00 0.00 0.00 0.00 0.01 0.01 0.01 0.01 0.01 0.01 0.01 0.01 0.01 0.00 0.00 0.01 0.02 0.01 0.02 0.02 0.02 0.02 0.01 0.01 0.01 0.01 0.03 0.02 0.01
0.00 0.00 0.00 0.00 0.00 0.00 0.00 0.00 0.00 0.00 0.00 0.00 0.00 0.00 0.00 0.00 0.00 0.00 0.00 0.01 0.01 0.01 0.01 0.01 0.01 0.00 0.00 0.01 0.01 0.01 0.01 0.02 0.01 0.01 0.01 0.01 0.01 0.01 0.01 0.01 0.02 0.03 0.03 0.02
0.00 0.00 0.00 0.00 0.00 0.00 0.00 0.00 0.00 0.00 0.00 0.00 0.00 0.00 0.00 0.00 0.00 0.00 0.00 0.00 0.00 0.01 0.00 0.01 0.01 0.01 0.01 0.01 0.01 0.02 0.02 0.02 0.02 0.01 0.01 0.01 0.01 0.01 0.02 0.02 0.01 0.02 0.03 0.02
0.00 0.00 0.00 0.00 0.00 0.00 0.00 0.00 0.00 0.00 0.00 0.00 0.00 0.00 0.00 0.00 0.00 0.00 0.01 0.00 0.00 0.00 0.01 0.01 0.01 0.01 0.02 0.04 0.02 0.03 0.02 0.02 0.01 0.01 0.01 0.01 0.01 0.02 0.02 0.02 0.01 0.02 0.03 0.02
0.00 0.00 0.00 0.00 0.00 0.00 0.00 0.00 0.00 0.00 0.00 0.00 0.00 0.00 0.00 0.00 0.00 0.00 0.00 0.00 0.00 0.01 0.01 0.02 0.01 0.02 0.03 0.05 0.03 0.03 0.02 0.04 0.03 0.01 0.01 0.01 0.02 0.02 0.02 0.01 0.01 0.01 0.01 0.01
0.00 0.00 0.00 0.01 0.01 0.00 0.00 0.00 0.00 0.00 0.00 0.00 0.00 0.00 0.00 0.00 0.01 0.00 0.00 0.00 0.00 0.00 0.01 0.01 0.01 0.02 0.05 0.05 0.03 0.03 0.04 0.05 0.04 0.02 0.01 0.01 0.01 0.01 0.01 0.01 0.01 0.01 0.01 0.01
0.00 0.00 0.00 0.00 0.00 0.00 0.00 0.00 0.00 0.00 0.00 0.01 0.01 0.00 0.00 0.00 0.00 0.00 0.00 0.01 0.00 0.00 0.01 0.01 0.01 0.03 0.04 0.03 0.03 0.03 0.03 0.03 0.02 0.01 0.01 0.01 0.00 0.01 0.01 0.00 0.00 0.00 0.00 0.00
0.00 0.00 0.00 0.00 0.00 0.00 0.00 0.00 0.00 0.01 0.00 0.00 0.01 0.01 0.00 0.00 0.01 0.00 0.00 0.00 0.01 0.01 0.01 0.02 0.02 0.02 0.02 0.01 0.02 0.02 0.01 0.00 0.00 0.00 0.00 0.00 0.00 0.00 0.00 0.00 0.00 0.00 0.00 0.00

GFSNGP_prec_precacc12_162.txt.gz
Total_Precipitation_Accumulation
0.00 0.00 0.00 0.00 0.00 0.00 0.00 0.00 0.02 0.01 0.00 0.00 0.00 0.00 0.00 0.00 0.00 0.00 0.00 0.00 0.00 0.00 0.00 0.00 0.00 0.00 0.00 0.00 0.00 0.00 0.00 0.00 0.01 0.00 0.00 0.00 0.00 0.00 0.00 0.00 0.00 0.00 0.01 0.02
0.00 0.00 0.00 0.00 0.00 0.00 0.00 0.00 0.00 0.00 0.00 0.00 0.00 0.00 0.00 0.00 0.00 0.00 0.00 0.00 0.00 0.00 0.00 0.00 0.00 0.00 0.00 0.00 0.00 0.00 0.00 0.00 0.00 0.01 0.01 0.01 0.01 0.02 0.05 0.06 0.05 0.06 0.06 0.04
0.00 0.00 0.01 0.02 0.00 0.00 0.00 0.00 0.00 0.01 0.00 0.00 0.00 0.00 0.00 0.00 0.00 0.00 0.00 0.00 0.00 0.00 0.00 0.00 0.00 0.00 0.00 0.00 0.00 0.00 0.00 0.01 0.03 0.05 0.06 0.08 0.13 0.20 0.22 0.18 0.16 0.17 0.17 0.16
0.00 0.00 0.00 0.00 0.00 0.00 0.00 0.00 0.00 0.00 0.00 0.00 0.00 0.00 0.00 0.00 0.00 0.00 0.00 0.00 0.00 0.00 0.01 0.03 0.03 0.02 0.02 0.03 0.03 0.03 0.07 0.15 0.26 0.29 0.31 0.34 0.40 0.44 0.39 0.33 0.30 0.30 0.25 0.27
0.00 0.00 0.00 0.00 0.00 0.00 0.00 0.00 0.00 0.00 0.00 0.00 0.00 0.00 0.00 0.00 0.01 0.01 0.01 0.00 0.00 0.00 0.02 0.08 0.14 0.18 0.21 0.29 0.33 0.38 0.44 0.50 0.54 0.56 0.63 0.70 0.76 0.72 0.63 0.54 0.51 0.37 0.31 0.35
0.00 0.00 0.00 0.00 0.00 0.00 0.00 0.01 0.00 0.00 0.00 0.00 0.00 0.01 0.06 0.04 0.06 0.02 0.00 0.00 0.00 0.00 0.02 0.04 0.10 0.20 0.31 0.44 0.55 0.62 0.67 0.73 0.76 0.76 0.74 0.75 0.71 0.63 0.55 0.48 0.40 0.28 0.32 0.29
0.02 0.04 0.01 0.00 0.00 0.01 0.03 0.02 0.00 0.00 0.01 0.01 0.05 0.06 0.10 0.07 0.05 0.01 0.00 0.00 0.00 0.00 0.00 0.00 0.02 0.10 0.22 0.37 0.46 0.52 0.64 0.74 0.71 0.65 0.59 0.54 0.46 0.37 0.35 0.32 0.26 0.27 0.30 0.19
0.05 0.07 0.04 0.00 0.00 0.04 0.04 0.02 0.02 0.01 0.02 0.03 0.02 0.06 0.24 0.20 0.05 0.01 0.00 0.00 0.00 0.00 0.00 0.00 0.00 0.02 0.09 0.24 0.41 0.52 0.63 0.66 0.49 0.43 0.40 0.37 0.31 0.32 0.27 0.23 0.22 0.23 0.21 0.15
0.01 0.02 0.00 0.00 0.00 0.00 0.01 0.01 0.00 0.01 0.01 0.06 0.17 0.09 0.06 0.02 0.01 0.00 0.00 0.00 0.00 0.00 0.00 0.00 0.00 0.00 0.02 0.08 0.17 0.37 0.46 0.42 0.37 0.36 0.32 0.25 0.25 0.26 0.26 0.22 0.19 0.19 0.15 0.12
0.04 0.00 0.00 0.00 0.00 0.00 0.00 0.00 0.00 0.00 0.00 0.02 0.10 0.11 0.03 0.02 0.01 0.01 0.00 0.00 0.00 0.00 0.00 0.00 0.00 0.00 0.00 0.04 0.10 0.16 0.23 0.31 0.34 0.32 0.33 0.31 0.23 0.20 0.18 0.17 0.14 0.12 0.10 0.08
0.01 0.00 0.00 0.00 0.00 0.00 0.00 0.00 0.00 0.00 0.00 0.02 0.03 0.03 0.02 0.02 0.01 0.00 0.00 0.00 0.00 0.00 0.00 0.00 0.00 0.00 0.00 0.03 0.07 0.13 0.19 0.27 0.32 0.32 0.26 0.22 0.20 0.15 0.12 0.11 0.06 0.05 0.04 0.03
0.00 0.00 0.00 0.00 0.00 0.01 0.01 0.00 0.00 0.00 0.01 0.02 0.03 0.08 0.07 0.03 0.02 0.01 0.00 0.00 0.00 0.00 0.00 0.00 0.00 0.01 0.02 0.03 0.03 0.09 0.15 0.20 0.23 0.22 0.18 0.14 0.13 0.15 0.14 0.11 0.07 0.03 0.00 0.00
0.00 0.00 0.00 0.00 0.00 0.00 0.00 0.00 0.00 0.02 0.04 0.07 0.19 0.21 0.14 0.16 0.07 0.01 0.01 0.00 0.00 0.00 0.00 0.00 0.00 0.02 0.05 0.07 0.06 0.05 0.04 0.07 0.13 0.12 0.10 0.09 0.10 0.10 0.12 0.12 0.09 0.05 0.01 0.00
0.00 0.00 0.00 0.00 0.00 0.01 0.01 0.01 0.02 0.02 0.03 0.04 0.10 0.12 0.11 0.06 0.01 0.00 0.00 0.00 0.00 0.00 0.00 0.01 0.01 0.04 0.07 0.11 0.14 0.15 0.21 0.19 0.14 0.12 0.11 0.12 0.09 0.10 0.09 0.08 0.08 0.09 0.07 0.01
0.00 0.00 0.01 0.01 0.02 0.02 0.03 0.11 0.20 0.18 0.17 0.20 0.17 0.14 0.03 0.00 0.00 0.00 0.00 0.00 0.00 0.00 0.02 0.03 0.06 0.11 0.13 0.14 0.16 0.17 0.18 0.18 0.15 0.14 0.11 0.08 0.07 0.08 0.08 0.07 0.05 0.03 0.04 0.06
0.01 0.03 0.04 0.03 0.01 0.01 0.00 0.02 0.24 0.34 0.38 0.26 0.18 0.06 0.01 0.00 0.01 0.01 0.01 0.03 0.06 0.07 0.10 0.11 0.12 0.16 0.21 0.24 0.22 0.21 0.20 0.20 0.18 0.15 0.12 0.09 0.08 0.06 0.04 0.03 0.02 0.01 0.01 0.02
0.03 0.07 0.11 0.21 0.16 0.05 0.02 0.04 0.13 0.07 0.18 0.17 0.07 0.01 0.00 0.00 0.00 0.00 0.00 0.00 0.00 0.01 0.01 0.02 0.04 0.06 0.08 0.09 0.08 0.09 0.10 0.12 0.10 0.08 0.08 0.06 0.05 0.03 0.01 0.01 0.01 0.01 0.01 0.01
0.00 0.00 0.04 0.24 0.04 0.02 0.01 0.04 0.07 0.01 0.01 0.02 0.00 0.00 0.00 0.00 0.00 0.00 0.01 0.01 0.01 0.01 0.01 0.01 0.02 0.04 0.05 0.06 0.05 0.05 0.05 0.06 0.06 0.06 0.05 0.03 0.02 0.01 0.00 0.01 0.00 0.00 0.01 0.01
0.00 0.00 0.00 0.04 0.02 0.01 0.02 0.02 0.01 0.00 0.00 0.00 0.00 0.00 0.00 0.00 0.00 0.00 0.01 0.01 0.01 0.01 0.02 0.01 0.02 0.03 0.04 0.05 0.02 0.02 0.03 0.03 0.04 0.04 0.03 0.03 0.02 0.01 0.01 0.01 0.00 0.01 0.03 0.01
0.00 0.00 0.00 0.00 0.01 0.04 0.02 0.00 0.00 0.00 0.00 0.00 0.00 0.00 0.00 0.00 0.00 0.00 0.00 0.01 0.01 0.01 0.01 0.01 0.01 0.02 0.01 0.01 0.00 0.00 0.01 0.01 0.01 0.02 0.02 0.02 0.02 0.01 0.01 0.01 0.02 0.03 0.03 0.01
0.00 0.00 0.00 0.00 0.00 0.00 0.00 0.00 0.00 0.00 0.00 0.00 0.00 0.00 0.00 0.00 0.00 0.00 0.00 0.01 0.01 0.01 0.01 0.01 0.01 0.00 0.00 0.00 0.00 0.01 0.01 0.01 0.01 0.01 0.01 0.01 0.01 0.01 0.01 0.01 0.02 0.03 0.03 0.01
0.00 0.00 0.01 0.00 0.00 0.00 0.00 0.00 0.00 0.00 0.00 0.00 0.00 0.00 0.00 0.00 0.00 0.00 0.01 0.01 0.00 0.01 0.00 0.01 0.00 0.00 0.00 0.00 0.00 0.01 0.01 0.01 0.01 0.01 0.01 0.01 0.01 0.01 0.02 0.01 0.01 0.02 0.03 0.01
0.00 0.00 0.01 0.00 0.00 0.00 0.01 0.00 0.00 0.00 0.00 0.00 0.00 0.00 0.00 0.00 0.00 0.00 0.01 0.00 0.00 0.01 0.01 0.01 0.00 0.00 0.00 0.02 0.01 0.01 0.01 0.01 0.01 0.01 0.01 0.01 0.01 0.02 0.02 0.01 0.01 0.02 0.03 0.01
0.00 0.00 0.01 0.01 0.01 0.01 0.00 0.00 0.00 0.00 0.00 0.00 0.00 0.00 0.00 0.00 0.00 0.00 0.00 0.00 0.00 0.01 0.01 0.01 0.01 0.01 0.02 0.04 0.02 0.02 0.02 0.03 0.02 0.01 0.01 0.01 0.02 0.02 0.02 0.01 0.01 0.01 0.01 0.01
0.00 0.00 0.01 0.02 0.02 0.01 0.01 0.00 0.00 0.00 0.00 0.00 0.00 0.00 0.00 0.00 0.01 0.00 0.00 0.00 0.00 0.01 0.01 0.01 0.01 0.02 0.05 0.04 0.03 0.03 0.04 0.05 0.04 0.02 0.01 0.01 0.01 0.01 0.01 0.01 0.01 0.01 0.01 0.01
0.00 0.00 0.00 0.00 0.00 0.00 0.00 0.00 0.00 0.00 0.00 0.01 0.01 0.00 0.00 0.00 0.00 0.00 0.00 0.00 0.00 0.01 0.01 0.01 0.01 0.03 0.04 0.03 0.03 0.03 0.03 0.03 0.02 0.02 0.01 0.01 0.01 0.01 0.01 0.00 0.00 0.00 0.00 0.00
0.00 0.00 0.00 0.00 0.00 0.00 0.00 0.00 0.00 0.01 0.00 0.00 0.01 0.01 0.00 0.00 0.01 0.00 0.00 0.00 0.01 0.00 0.01 0.01 0.02 0.03 0.02 0.02 0.02 0.02 0.01 0.01 0.01 0.01 0.01 0.01 0.00 0.00 0.00 0.00 0.00 0.00 0.00 0.00

GFSNGP_prec_precacc12_165.txt.gz
Total_Precipitation_Accumulation
0.00 0.00 0.00 0.00 0.00 0.00 0.00 0.00 0.01 0.01 0.00 0.00 0.01 0.00 0.00 0.00 0.00 0.00 0.00 0.00 0.00 0.00 0.00 0.00 0.00 0.00 0.00 0.00 0.00 0.00 0.00 0.00 0.00 0.00 0.00 0.00 0.00 0.00 0.00 0.00 0.00 0.01 0.01 0.03
0.00 0.00 0.00 0.00 0.00 0.00 0.00 0.00 0.00 0.00 0.00 0.00 0.00 0.00 0.00 0.00 0.00 0.00 0.00 0.00 0.00 0.00 0.00 0.00 0.00 0.00 0.00 0.00 0.00 0.00 0.00 0.00 0.00 0.00 0.00 0.00 0.00 0.02 0.04 0.05 0.05 0.07 0.09 0.09
0.01 0.00 0.01 0.01 0.00 0.00 0.00 0.00 0.00 0.00 0.00 0.00 0.00 0.00 0.00 0.00 0.00 0.00 0.00 0.00 0.00 0.00 0.00 0.00 0.00 0.00 0.00 0.00 0.00 0.00 0.00 0.01 0.01 0.02 0.02 0.03 0.08 0.16 0.19 0.17 0.17 0.24 0.28 0.27
0.02 0.02 0.04 0.01 0.00 0.00 0.00 0.00 0.00 0.00 0.00 0.00 0.00 0.00 0.00 0.00 0.00 0.00 0.00 0.00 0.00 0.00 0.00 0.00 0.00 0.00 0.00 0.01 0.02 0.02 0.03 0.07 0.11 0.14 0.16 0.20 0.28 0.36 0.35 0.34 0.37 0.40 0.37 0.38
0.03 0.03 0.01 0.00 0.00 0.00 0.00 0.00 0.00 0.00 0.00 0.00 0.00 0.00 0.00 0.00 0.01 0.01 0.01 0.00 0.00 0.00 0.00 0.00 0.00 0.01 0.04 0.07 0.12 0.13 0.16 0.20 0.21 0.26 0.34 0.45 0.56 0.59 0.57 0.55 0.57 0.46 0.41 0.43
0.00 0.01 0.00 0.00 0.00 0.00 0.00 0.00 0.00 0.00 0.00 0.00 0.00 0.00 0.04 0.04 0.06 0.02 0.00 0.00 0.00 0.00 0.00 0.00 0.00 0.00 0.02 0.10 0.16 0.17 0.23 0.32 0.39 0.45 0.51 0.58 0.60 0.57 0.54 0.49 0.42 0.32 0.39 0.35
0.00 0.00 0.00 0.00 0.00 0.00 0.00 0.01 0.00 0.00 0.01 0.01 0.05 0.06 0.10 0.07 0.05 0.01 0.00 0.00 0.00 0.00 0.00 0.00 0.00 0.00 0.01 0.06 0.13 0.15 0.19 0.30 0.40 0.45 0.45 0.44 0.42 0.37 0.36 0.33 0.29 0.32 0.34 0.25
0.02 0.03 0.02 0.00 0.00 0.01 0.03 0.02 0.02 0.00 0.02 0.03 0.02 0.06 0.24 0.20 0.05 0.01 0.00 0.00 0.00 0.00 0.00 0.00 0.00 0.00 0.00 0.01 0.07 0.14 0.17 0.24 0.26 0.28 0.30 0.29 0.28 0.32 0.28 0.26 0.25 0.26 0.24 0.18
0.00 0.01 0.00 0.00 0.00 0.00 0.01 0.01 0.00 0.00 0.00 0.06 0.17 0.09 0.06 0.02 0.01 0.00 0.00 0.00 0.00 0.00 0.00 0.00 0.00 0.00 0.00 0.01 0.02 0.08 0.16 0.14 0.17 0.21 0.21 0.22 0.24 0.27 0.27 0.24 0.23 0.22 0.18 0.15
0.02 0.00 0.00 0.00 0.00 0.00 0.00 0.00 0.00 0.00 0.00 0.02 0.10 0.11 0.03 0.02 0.01 0.00 0.00 0.00 0.00 0.00 0.00 0.00 0.00 0.00 0.00 0.01 0.02 0.05 0.08 0.12 0.17 0.19 0.23 0.27 0.23 0.21 0.19 0.19 0.18 0.16 0.14 0.12
0.00 0.00 0.00 0.00 0.00 0.00 0.00 0.00 0.00 0.00 0.00 0.02 0.03 0.03 0.02 0.02 0.01 0.00 0.00 0.00 0.00 0.00 0.00 0.00 0.00 0.00 0.00 0.01 0.01 0.04 0.07 0.13 0.16 0.20 0.21 0.22 0.22 0.17 0.14 0.14 0.10 0.09 0.08 0.06
0.00 0.00 0.00 0.00 0.00 0.00 0.00 0.00 0.00 0.00 0.01 0.02 0.03 0.08 0.07 0.03 0.02 0.01 0.00 0.00 0.00 0.00 0.00 0.00 0.00 0.00 0.01 0.01 0.01 0.02 0.05 0.10 0.12 0.16 0.18 0.16 0.15 0.18 0.17 0.14 0.13 0.10 0.06 0.04
0.00 0.00 0.00 0.00 0.00 0.00 0.00 0.00 0.00 0.02 0.04 0.07 0.19 0.21 0.14 0.16 0.07 0.01 0.01 0.00 0.00 0.00 0.00 0.00 0.00 0.01 0.03 0.05 0.05 0.04 0.03 0.05 0.09 0.11 0.11 0.11 0.14 0.14 0.16 0.17 0.15 0.12 0.06 0.02
0.00 0.00 0.00 0.00 0.00 0.00 0.01 0.00 0.01 0.02 0.03 0.04 0.10 0.12 0.11 0.06 0.01 0.00 0.00 0.00 0.00 0.00 0.00 0.00 0.01 0.03 0.06 0.09 0.12 0.13 0.18 0.16 0.10 0.11 0.13 0.15 0.15 0.14 0.13 0.13 0.13 0.16 0.14 0.04
0.00 0.00 0.00 0.00 0.00 0.01 0.03 0.11 0.20 0.18 0.17 0.20 0.17 0.14 0.03 0.00 0.00 0.00 0.00 0.00 0.00 0.00 0.00 0.01 0.02 0.06 0.09 0.11 0.13 0.14 0.14 0.13 0.11 0.13 0.12 0.10 0.10 0.10 0.10 0.11 0.09 0.07 0.10 0.10
0.01 0.02 0.02 0.02 0.01 0.01 0.00 0.02 0.24 0.34 0.38 0.26 0.18 0.06 0.01 0.00 0.00 0.00 0.00 0.00 0.00 0.01 0.04 0.06 0.08 0.12 0.16 0.19 0.17 0.17 0.16 0.17 0.16 0.14 0.13 0.10 0.09 0.07 0.05 0.04 0.03 0.03 0.02 0.02
0.02 0.07 0.10 0.21 0.16 0.05 0.02 0.04 0.13 0.07 0.18 0.18 0.10 0.04 0.01 0.00 0.00 0.00 0.00 0.00 0.00 0.00 0.00 0.00 0.02 0.03 0.04 0.04 0.04 0.05 0.07 0.09 0.08 0.08 0.08 0.06 0.05 0.03 0.01 0.01 0.01 0.01 0.01 0.01
0.00 0.00 0.04 0.24 0.04 0.03 0.10 0.13 0.08 0.01 0.03 0.06 0.02 0.01 0.01 0.00 0.00 0.01 0.00 0.01 0.01 0.00 0.00 0.00 0.01 0.03 0.03 0.03 0.03 0.03 0.04 0.05 0.05 0.04 0.04 0.03 0.02 0.01 0.01 0.01 0.00 0.00 0.01 0.01
0.00 0.00 0.00 0.04 0.01 0.02 0.04 0.02 0.02 0.01 0.01 0.01 0.00 0.00 0.00 0.00 0.00 0.00 0.00 0.00 0.00 0.01 0.01 0.01 0.02 0.03 0.03 0.03 0.02 0.02 0.02 0.02 0.03 0.03 0.02 0.02 0.02 0.01 0.01 0.01 0.00 0.01 0.03 0.01
0.00 0.00 0.00 0.00 0.01 0.04 0.03 0.01 0.01 0.00 0.00 0.00 0.00 0.00 0.00 0.00 0.00 0.00 0.00 0.01 0.01 0.00 0.00 0.01 0.01 0.02 0.01 0.01 0.00 0.00 0.01 0.01 0.01 0.01 0.01 0.02 0.02 0.01 0.01 0.00 0.01 0.03 0.02 0.01
0.00 0.00 0.00 0.00 0.00 0.00 0.01 0.00 0.00 0.00 0.00 0.00 0.00 0.00 0.00 0.00 0.00 0.00 0.00 0.01 0.01 0.00 0.00 0.01 0.01 0.00 0.00 0.00 0.00 0.01 0.01 0.01 0.01 0.01 0.01 0.01 0.01 0.01 0.01 0.01 0.02 0.02 0.03 0.01
0.00 0.00 0.01 0.00 0.01 0.01 0.00 0.00 0.00 0.00 0.00 0.00 0.00 0.00 0.00 0.00 0.00 0.00 0.00 0.00 0.01 0.01 0.00 0.01 0.00 0.00 0.00 0.00 0.00 0.01 0.01 0.01 0.01 0.01 0.01 0.01 0.01 0.01 0.01 0.01 0.01 0.01 0.02 0.01
0.00 0.01 0.01 0.01 0.02 0.02 0.02 0.01 0.00 0.00 0.00 0.00 0.00 0.00 0.00 0.00 0.00 0.00 0.01 0.00 0.00 0.01 0.01 0.01 0.00 0.01 0.00 0.01 0.00 0.00 0.01 0.01 0.01 0.00 0.00 0.01 0.01 0.01 0.01 0.01 0.00 0.01 0.02 0.01
0.01 0.01 0.02 0.02 0.02 0.01 0.01 0.01 0.01 0.00 0.00 0.00 0.00 0.00 0.00 0.00 0.00 0.00 0.00 0.00 0.00 0.01 0.01 0.01 0.00 0.01 0.01 0.03 0.01 0.01 0.01 0.01 0.01 0.01 0.01 0.01 0.01 0.01 0.01 0.01 0.00 0.01 0.01 0.01
0.01 0.00 0.01 0.03 0.03 0.03 0.04 0.03 0.02 0.01 0.00 0.00 0.00 0.00 0.00 0.00 0.00 0.00 0.00 0.00 0.01 0.01 0.01 0.01 0.01 0.01 0.03 0.03 0.02 0.02 0.02 0.03 0.03 0.02 0.01 0.01 0.01 0.01 0.01 0.01 0.01 0.01 0.01 0.00
0.00 0.00 0.00 0.01 0.01 0.01 0.01 0.02 0.02 0.01 0.00 0.01 0.01 0.01 0.00 0.00 0.00 0.00 0.00 0.01 0.00 0.01 0.01 0.01 0.01 0.02 0.02 0.02 0.02 0.02 0.02 0.02 0.02 0.01 0.00 0.01 0.00 0.01 0.01 0.00 0.00 0.00 0.00 0.00
0.00 0.00 0.00 0.01 0.00 0.00 0.00 0.00 0.01 0.01 0.00 0.00 0.02 0.01 0.00 0.00 0.00 0.00 0.00 0.00 0.00 0.00 0.01 0.01 0.02 0.02 0.01 0.01 0.02 0.02 0.01 0.01 0.01 0.01 0.01 0.01 0.00 0.00 0.00 0.00 0.00 0.00 0.00 0.00

GFSNGP_prec_precacc12_168.txt.gz
Total_Precipitation_Accumulation
0.00 0.00 0.00 0.00 0.00 0.00 0.00 0.00 0.01 0.00 0.00 0.00 0.01 0.00 0.00 0.00 0.00 0.00 0.00 0.00 0.00 0.00 0.00 0.00 0.00 0.00 0.00 0.00 0.00 0.00 0.00 0.00 0.00 0.00 0.00 0.00 0.00 0.00 0.00 0.00 0.00 0.00 0.01 0.02
0.00 0.00 0.00 0.00 0.00 0.00 0.00 0.00 0.00 0.00 0.00 0.00 0.00 0.00 0.00 0.00 0.00 0.00 0.00 0.00 0.00 0.00 0.00 0.00 0.00 0.00 0.00 0.00 0.00 0.00 0.00 0.00 0.00 0.00 0.00 0.00 0.00 0.01 0.04 0.05 0.04 0.06 0.07 0.08
0.01 0.00 0.00 0.00 0.00 0.00 0.00 0.00 0.00 0.00 0.00 0.00 0.00 0.00 0.00 0.00 0.00 0.00 0.00 0.00 0.00 0.00 0.00 0.00 0.00 0.00 0.00 0.00 0.00 0.00 0.00 0.00 0.01 0.01 0.01 0.03 0.07 0.13 0.14 0.12 0.13 0.19 0.25 0.26
0.10 0.05 0.09 0.01 0.00 0.00 0.00 0.00 0.00 0.00 0.00 0.00 0.00 0.00 0.00 0.00 0.00 0.00 0.00 0.00 0.00 0.00 0.00 0.00 0.00 0.00 0.00 0.00 0.00 0.00 0.01 0.02 0.05 0.07 0.09 0.14 0.19 0.21 0.20 0.22 0.28 0.32 0.34 0.39
0.19 0.13 0.04 0.00 0.00 0.00 0.00 0.00 0.00 0.00 0.00 0.00 0.00 0.00 0.00 0.00 0.00 0.00 0.00 0.00 0.00 0.00 0.00 0.00 0.00 0.00 0.00 0.00 0.01 0.01 0.02 0.06 0.06 0.08 0.13 0.21 0.29 0.33 0.36 0.39 0.41 0.37 0.39 0.45
0.18 0.13 0.07 0.01 0.00 0.00 0.00 0.00 0.00 0.00 0.00 0.00 0.00 0.00 0.02 0.02 0.03 0.01 0.00 0.00 0.00 0.00 0.00 0.00 0.00 0.00 0.00 0.00 0.01 0.01 0.02 0.05 0.08 0.11 0.15 0.23 0.30 0.33 0.35 0.32 0.32 0.29 0.40 0.37
0.07 0.04 0.01 0.00 0.00 0.00 0.00 0.01 0.00 0.00 0.00 0.00 0.00 0.01 0.02 0.05 0.04 0.01 0.00 0.00 0.00 0.00 0.00 0.00 0.00 0.00 0.00 0.00 0.00 0.00 0.01 0.02 0.05 0.09 0.12 0.16 0.19 0.20 0.23 0.25 0.25 0.31 0.35 0.25
0.03 0.03 0.00 0.00 0.00 0.00 0.01 0.01 0.00 0.00 0.00 0.00 0.00 0.04 0.23 0.20 0.05 0.01 0.00 0.00 0.00 0.00 0.00 0.00 0.00 0.00 0.00 0.00 0.00 0.00 0.01 0.02 0.04 0.06 0.09 0.12 0.14 0.20 0.20 0.21 0.23 0.26 0.24 0.19
0.00 0.00 0.00 0.00 0.00 0.00 0.00 0.00 0.00 0.00 0.00 0.00 0.01 0.01 0.04 0.02 0.00 0.00 0.00 0.00 0.00 0.00 0.00 0.00 0.00 0.00 0.00 0.00 0.00 0.00 0.01 0.01 0.02 0.05 0.07 0.09 0.11 0.15 0.19 0.21 0.22 0.22 0.19 0.16
0.00 0.00 0.00 0.00 0.00 0.00 0.00 0.00 0.00 0.00 0.00 0.01 0.00 0.00 0.02 0.02 0.01 0.00 0.00 0.00 0.00 0.00 0.00 0.00 0.00 0.00 0.00 0.00 0.00 0.00 0.01 0.02 0.03 0.05 0.09 0.12 0.14 0.15 0.16 0.18 0.18 0.16 0.15 0.14
0.00 0.00 0.00 0.00 0.00 0.00 0.00 0.00 0.00 0.00 0.00 0.01 0.02 0.01 0.02 0.02 0.01 0.00 0.00 0.00 0.00 0.00 0.00 0.00 0.00 0.00 0.00 0.00 0.00 0.01 0.02 0.04 0.06 0.07 0.09 0.11 0.13 0.13 0.13 0.14 0.10 0.09 0.09 0.09
0.00 0.00 0.00 0.00 0.00 0.00 0.00 0.00 0.00 0.00 0.00 0.00 0.01 0.07 0.07 0.03 0.02 0.01 0.00 0.00 0.00 0.00 0.00 0.00 0.00 0.00 0.00 0.00 0.00 0.01 0.03 0.05 0.05 0.06 0.08 0.10 0.12 0.18 0.19 0.16 0.15 0.12 0.08 0.07
0.00 0.00 0.00 0.00 0.00 0.00 0.00 0.00 0.00 0.00 0.00 0.01 0.09 0.16 0.14 0.16 0.07 0.01 0.01 0.00 0.00 0.00 0.00 0.00 0.00 0.00 0.01 0.02 0.03 0.03 0.03 0.04 0.06 0.06 0.06 0.08 0.13 0.14 0.17 0.20 0.18 0.16 0.11 0.07
0.00 0.00 0.00 0.00 0.00 0.00 0.00 0.00 0.00 0.00 0.00 0.03 0.09 0.12 0.11 0.06 0.01 0.00 0.00 0.00 0.00 0.00 0.00 0.00 0.00 0.01 0.02 0.03 0.07 0.11 0.16 0.14 0.07 0.07 0.08 0.13 0.14 0.14 0.14 0.16 0.18 0.21 0.21 0.12
0.00 0.00 0.00 0.00 0.00 0.00 0.00 0.00 0.02 0.05 0.06 0.19 0.17 0.14 0.03 0.00 0.00 0.00 0.00 0.00 0.00 0.00 0.00 0.00 0.00 0.01 0.02 0.04 0.08 0.09 0.10 0.08 0.06 0.08 0.09 0.09 0.09 0.11 0.11 0.12 0.12 0.11 0.15 0.16
0.00 0.00 0.00 0.00 0.00 0.00 0.00 0.00 0.12 0.26 0.36 0.26 0.18 0.06 0.01 0.00 0.00 0.00 0.00 0.00 0.00 0.00 0.01 0.00 0.01 0.02 0.04 0.09 0.08 0.10 0.11 0.12 0.12 0.10 0.11 0.09 0.08 0.07 0.06 0.05 0.05 0.05 0.04 0.03
0.00 0.00 0.01 0.11 0.08 0.02 0.01 0.03 0.13 0.07 0.18 0.18 0.10 0.04 0.01 0.00 0.00 0.00 0.00 0.01 0.00 0.00 0.00 0.00 0.01 0.01 0.02 0.01 0.01 0.02 0.03 0.04 0.04 0.05 0.06 0.05 0.04 0.03 0.02 0.02 0.02 0.03 0.03 0.02
0.00 0.00 0.02 0.20 0.04 0.03 0.10 0.13 0.08 0.01 0.03 0.06 0.02 0.05 0.10 0.06 0.01 0.00 0.01 0.03 0.02 0.01 0.00 0.00 0.01 0.02 0.02 0.01 0.01 0.01 0.01 0.02 0.03 0.02 0.03 0.03 0.01 0.01 0.00 0.01 0.00 0.01 0.01 0.02
0.00 0.00 0.00 0.04 0.01 0.02 0.03 0.02 0.02 0.01 0.01 0.01 0.00 0.01 0.05 0.05 0.03 0.03 0.03 0.02 0.01 0.01 0.01 0.00 0.02 0.03 0.01 0.02 0.01 0.01 0.01 0.01 0.01 0.02 0.01 0.01 0.01 0.00 0.00 0.00 0.00 0.00 0.00 0.00
0.00 0.00 0.00 0.00 0.01 0.03 0.03 0.01 0.01 0.00 0.00 0.00 0.00 0.00 0.01 0.02 0.02 0.01 0.01 0.01 0.01 0.00 0.00 0.01 0.01 0.01 0.01 0.01 0.01 0.00 0.00 0.00 0.00 0.01 0.01 0.01 0.01 0.01 0.00 0.00 0.00 0.01 0.01 0.00
0.00 0.00 0.00 0.00 0.00 0.00 0.01 0.00 0.00 0.00 0.00 0.00 0.00 0.00 0.00 0.00 0.00 0.00 0.00 0.01 0.01 0.00 0.00 0.01 0.01 0.01 0.00 0.01 0.01 0.01 0.01 0.01 0.00 0.00 0.01 0.01 0.01 0.00 0.00 0.00 0.01 0.01 0.01 0.01
0.00 0.00 0.01 0.01 0.01 0.01 0.00 0.00 0.00 0.00 0.00 0.00 0.00 0.00 0.00 0.00 0.00 0.00 0.00 0.00 0.01 0.01 0.00 0.01 0.00 0.00 0.00 0.01 0.00 0.01 0.01 0.01 0.00 0.00 0.01 0.00 0.00 0.00 0.00 0.00 0.00 0.01 0.01 0.00
0.00 0.01 0.01 0.01 0.03 0.04 0.02 0.01 0.00 0.00 0.01 0.01 0.00 0.00 0.00 0.00 0.00 0.00 0.01 0.00 0.00 0.01 0.00 0.00 0.00 0.01 0.00 0.01 0.00 0.00 0.01 0.00 0.00 0.00 0.00 0.00 0.00 0.00 0.00 0.00 0.00 0.00 0.01 0.00
0.01 0.01 0.02 0.02 0.02 0.02 0.02 0.02 0.01 0.01 0.00 0.00 0.00 0.00 0.00 0.00 0.00 0.00 0.00 0.00 0.00 0.01 0.01 0.01 0.00 0.00 0.00 0.01 0.00 0.00 0.00 0.00 0.00 0.00 0.00 0.00 0.00 0.00 0.00 0.00 0.00 0.00 0.00 0.00
0.01 0.01 0.01 0.03 0.04 0.04 0.05 0.05 0.04 0.03 0.01 0.00 0.00 0.00 0.00 0.00 0.00 0.00 0.00 0.00 0.01 0.01 0.01 0.01 0.00 0.00 0.01 0.01 0.00 0.00 0.00 0.01 0.01 0.00 0.00 0.00 0.00 0.00 0.00 0.00 0.00 0.00 0.00 0.00
0.00 0.00 0.01 0.02 0.01 0.01 0.01 0.02 0.03 0.03 0.01 0.01 0.01 0.01 0.00 0.00 0.00 0.00 0.00 0.00 0.00 0.01 0.01 0.01 0.01 0.01 0.01 0.01 0.01 0.01 0.01 0.01 0.02 0.01 0.00 0.00 0.00 0.01 0.00 0.00 0.00 0.00 0.00 0.00
0.00 0.00 0.01 0.01 0.00 0.00 0.00 0.00 0.01 0.02 0.01 0.01 0.02 0.02 0.01 0.00 0.00 0.00 0.00 0.01 0.01 0.00 0.01 0.02 0.02 0.02 0.01 0.01 0.01 0.01 0.00 0.01 0.01 0.01 0.00 0.00 0.00 0.00 0.00 0.00 0.00 0.00 0.00 0.00

GFSNGP_prec_precacc12_171.txt.gz
Total_Precipitation_Accumulation
0.00 0.00 0.00 0.00 0.00 0.00 0.00 0.00 0.01 0.00 0.00 0.00 0.01 0.00 0.00 0.00 0.00 0.00 0.00 0.00 0.00 0.00 0.00 0.00 0.00 0.00 0.00 0.00 0.00 0.00 0.00 0.00 0.00 0.00 0.00 0.00 0.00 0.00 0.00 0.00 0.00 0.00 0.01 0.01
0.00 0.00 0.00 0.00 0.00 0.00 0.00 0.00 0.00 0.00 0.00 0.00 0.00 0.00 0.00 0.00 0.00 0.00 0.00 0.00 0.00 0.00 0.00 0.00 0.00 0.00 0.00 0.00 0.00 0.00 0.00 0.00 0.00 0.00 0.00 0.00 0.00 0.01 0.02 0.03 0.04 0.06 0.06 0.07
0.03 0.00 0.00 0.01 0.00 0.00 0.00 0.00 0.00 0.00 0.00 0.00 0.00 0.00 0.00 0.00 0.00 0.00 0.00 0.00 0.00 0.00 0.00 0.00 0.00 0.00 0.00 0.00 0.00 0.00 0.00 0.00 0.00 0.00 0.00 0.01 0.01 0.04 0.07 0.09 0.09 0.14 0.19 0.20
0.14 0.08 0.15 0.02 0.00 0.00 0.00 0.00 0.00 0.00 0.00 0.00 0.00 0.00 0.00 0.00 0.00 0.00 0.00 0.00 0.00 0.00 0.00 0.00 0.00 0.00 0.00 0.00 0.00 0.00 0.00 0.00 0.00 0.00 0.01 0.03 0.05 0.08 0.10 0.14 0.17 0.20 0.24 0.27
0.30 0.23 0.08 0.01 0.00 0.00 0.00 0.00 0.00 0.00 0.00 0.00 0.00 0.00 0.00 0.00 0.00 0.00 0.00 0.00 0.00 0.00 0.00 0.00 0.00 0.00 0.00 0.00 0.00 0.00 0.00 0.00 0.00 0.00 0.01 0.06 0.12 0.15 0.18 0.21 0.21 0.19 0.24 0.28
0.31 0.26 0.16 0.02 0.00 0.00 0.00 0.00 0.00 0.00 0.00 0.00 0.00 0.00 0.00 0.00 0.00 0.00 0.00 0.00 0.00 0.00 0.00 0.00 0.00 0.00 0.00 0.00 0.00 0.00 0.00 0.00 0.00 0.00 0.01 0.04 0.09 0.12 0.14 0.13 0.11 0.15 0.23 0.24
0.21 0.16 0.05 0.00 0.00 0.00 0.02 0.02 0.00 0.00 0.00 0.00 0.00 0.00 0.00 0.00 0.00 0.00 0.00 0.00 0.00 0.00 0.00 0.00 0.00 0.00 0.00 0.00 0.00 0.00 0.00 0.00 0.00 0.00 0.01 0.02 0.04 0.05 0.05 0.08 0.12 0.17 0.19 0.18
0.13 0.12 0.05 0.00 0.00 0.00 0.00 0.00 0.00 0.00 0.00 0.00 0.00 0.00 0.00 0.00 0.00 0.00 0.00 0.00 0.00 0.00 0.00 0.00 0.00 0.00 0.00 0.00 0.00 0.00 0.00 0.00 0.00 0.00 0.01 0.02 0.04 0.07 0.06 0.08 0.10 0.12 0.13 0.14
0.01 0.00 0.00 0.00 0.00 0.00 0.00 0.00 0.00 0.00 0.00 0.00 0.00 0.00 0.00 0.00 0.00 0.00 0.00 0.00 0.00 0.00 0.00 0.00 0.00 0.00 0.00 0.00 0.00 0.00 0.00 0.00 0.00 0.01 0.02 0.03 0.03 0.05 0.06 0.08 0.10 0.12 0.12 0.13
0.00 0.00 0.00 0.00 0.00 0.00 0.00 0.00 0.00 0.00 0.00 0.00 0.00 0.00 0.00 0.01 0.01 0.00 0.00 0.00 0.00 0.00 0.00 0.00 0.00 0.00 0.00 0.00 0.00 0.00 0.00 0.01 0.02 0.02 0.03 0.04 0.05 0.04 0.04 0.07 0.10 0.11 0.12 0.13
0.00 0.00 0.00 0.00 0.00 0.00 0.00 0.00 0.00 0.00 0.00 0.00 0.00 0.00 0.00 0.01 0.01 0.00 0.00 0.00 0.00 0.00 0.00 0.00 0.00 0.00 0.00 0.00 0.00 0.00 0.01 0.02 0.03 0.04 0.04 0.04 0.05 0.05 0.06 0.09 0.07 0.07 0.09 0.09
0.00 0.00 0.00 0.00 0.00 0.00 0.00 0.00 0.00 0.00 0.00 0.00 0.00 0.00 0.00 0.00 0.01 0.01 0.00 0.00 0.00 0.00 0.00 0.00 0.00 0.00 0.00 0.00 0.00 0.01 0.02 0.03 0.03 0.04 0.05 0.05 0.05 0.09 0.12 0.13 0.14 0.12 0.08 0.08
0.00 0.00 0.00 0.00 0.00 0.00 0.00 0.00 0.00 0.00 0.00 0.00 0.00 0.00 0.00 0.01 0.04 0.01 0.01 0.00 0.00 0.00 0.00 0.00 0.00 0.00 0.00 0.00 0.01 0.02 0.02 0.03 0.05 0.05 0.05 0.06 0.08 0.08 0.11 0.17 0.18 0.16 0.11 0.08
0.00 0.00 0.00 0.00 0.00 0.00 0.00 0.00 0.00 0.00 0.00 0.00 0.00 0.00 0.01 0.04 0.01 0.00 0.00 0.01 0.00 0.00 0.00 0.00 0.00 0.00 0.01 0.01 0.01 0.01 0.06 0.10 0.04 0.04 0.05 0.09 0.09 0.09 0.10 0.14 0.17 0.20 0.20 0.13
0.00 0.00 0.00 0.00 0.00 0.00 0.00 0.00 0.00 0.00 0.00 0.00 0.00 0.05 0.02 0.00 0.00 0.00 0.00 0.00 0.00 0.00 0.00 0.01 0.01 0.01 0.02 0.01 0.01 0.01 0.03 0.03 0.02 0.03 0.04 0.06 0.06 0.07 0.08 0.11 0.12 0.11 0.14 0.16
0.00 0.00 0.00 0.00 0.00 0.00 0.00 0.00 0.00 0.00 0.07 0.05 0.05 0.05 0.01 0.00 0.00 0.00 0.00 0.00 0.00 0.01 0.02 0.02 0.02 0.01 0.01 0.01 0.01 0.02 0.02 0.05 0.07 0.06 0.06 0.05 0.05 0.05 0.05 0.04 0.05 0.05 0.04 0.03
0.00 0.00 0.00 0.01 0.01 0.00 0.01 0.01 0.01 0.04 0.11 0.13 0.10 0.04 0.01 0.00 0.00 0.00 0.00 0.01 0.01 0.03 0.04 0.03 0.01 0.01 0.02 0.01 0.01 0.01 0.01 0.01 0.01 0.02 0.03 0.02 0.03 0.03 0.02 0.02 0.02 0.03 0.03 0.02
0.00 0.00 0.01 0.01 0.01 0.03 0.10 0.12 0.06 0.01 0.03 0.06 0.02 0.05 0.12 0.08 0.02 0.00 0.01 0.04 0.10 0.13 0.09 0.02 0.01 0.02 0.02 0.01 0.00 0.01 0.00 0.01 0.01 0.01 0.01 0.01 0.01 0.01 0.00 0.01 0.00 0.01 0.01 0.03
0.00 0.00 0.00 0.00 0.00 0.01 0.02 0.01 0.01 0.01 0.01 0.01 0.00 0.02 0.10 0.13 0.09 0.07 0.06 0.07 0.07 0.07 0.04 0.01 0.02 0.03 0.01 0.01 0.00 0.00 0.00 0.01 0.01 0.01 0.01 0.01 0.00 0.00 0.00 0.00 0.00 0.00 0.00 0.00
0.00 0.00 0.00 0.00 0.00 0.03 0.03 0.01 0.01 0.00 0.00 0.00 0.00 0.00 0.01 0.03 0.05 0.08 0.07 0.05 0.02 0.00 0.00 0.01 0.02 0.02 0.01 0.01 0.01 0.00 0.00 0.00 0.00 0.01 0.01 0.01 0.00 0.00 0.00 0.00 0.00 0.00 0.00 0.00
0.00 0.00 0.00 0.00 0.00 0.00 0.01 0.00 0.00 0.00 0.00 0.00 0.00 0.00 0.00 0.01 0.01 0.01 0.01 0.01 0.01 0.00 0.01 0.02 0.01 0.01 0.01 0.01 0.01 0.01 0.01 0.01 0.00 0.00 0.01 0.01 0.00 0.00 0.00 0.00 0.01 0.00 0.00 0.00
0.00 0.00 0.01 0.01 0.01 0.01 0.00 0.00 0.00 0.00 0.00 0.00 0.01 0.01 0.00 0.00 0.00 0.00 0.00 0.00 0.01 0.01 0.01 0.01 0.01 0.01 0.01 0.01 0.01 0.01 0.01 0.01 0.01 0.01 0.01 0.00 0.00 0.00 0.00 0.00 0.00 0.00 0.00 0.00
0.00 0.00 0.01 0.02 0.03 0.05 0.03 0.01 0.00 0.00 0.01 0.01 0.01 0.01 0.00 0.00 0.00 0.00 0.01 0.01 0.00 0.01 0.00 0.01 0.01 0.01 0.00 0.01 0.01 0.00 0.01 0.00 0.00 0.00 0.00 0.00 0.00 0.00 0.00 0.00 0.00 0.00 0.00 0.00
0.01 0.01 0.02 0.02 0.02 0.03 0.04 0.04 0.02 0.01 0.01 0.00 0.00 0.00 0.00 0.00 0.00 0.00 0.00 0.00 0.00 0.01 0.01 0.01 0.01 0.01 0.01 0.01 0.00 0.00 0.00 0.00 0.00 0.00 0.00 0.00 0.00 0.00 0.00 0.00 0.00 0.00 0.00 0.00
0.01 0.01 0.01 0.02 0.03 0.03 0.04 0.05 0.04 0.03 0.02 0.01 0.00 0.00 0.00 0.00 0.00 0.00 0.00 0.00 0.01 0.01 0.02 0.01 0.00 0.00 0.00 0.01 0.00 0.00 0.00 0.00 0.00 0.00 0.00 0.00 0.00 0.00 0.00 0.00 0.00 0.00 0.00 0.00
0.00 0.00 0.01 0.01 0.01 0.01 0.01 0.02 0.03 0.03 0.02 0.02 0.01 0.01 0.00 0.00 0.00 0.00 0.00 0.00 0.00 0.01 0.01 0.01 0.00 0.00 0.00 0.01 0.00 0.00 0.00 0.00 0.00 0.00 0.00 0.00 0.00 0.00 0.00 0.00 0.00 0.00 0.00 0.00
0.00 0.00 0.01 0.01 0.00 0.00 0.00 0.00 0.01 0.02 0.01 0.01 0.01 0.01 0.01 0.00 0.00 0.00 0.01 0.01 0.01 0.01 0.02 0.02 0.01 0.01 0.00 0.01 0.01 0.00 0.00 0.00 0.00 0.01 0.00 0.00 0.00 0.00 0.00 0.00 0.00 0.00 0.00 0.00